sat.trackr.live / text

‹ back to catalog

STARLINK-1962

NORAD 47563 · 2021-009R

PAYLOAD ACTIVE UNKNOWN

§ Identity

Operator
Country
US
Launch date
2021-02-04
Launch site
AFETR
Launch vehicle
Mass (kg)
RCS (m²)

Purposes: comms

External: N2YO · Heavens-Above · Gunter

§ Orbital elements

Epoch: 2026-07-08T05:13:21.511776Z

Period
88.08 min
Inclination
53.0200°
Eccentricity
0.0009749
Mean motion
16.34854447 rev/d
Perigee alt
173.1 km
Apogee alt
185.9 km
Semi-major
6,557.7 km
B*
7.8574e-4
RAAN
112.0746°
Arg perigee
251.0643°
Mean anomaly
108.9344°
Rev number
30,019

§ Raw data

STARLINK-19621 47563U 21009R   26189.21761009  .06096135  12181-4  78574-3 0  99902 47563  53.0200 112.0746 0009749 251.0643 108.9344 16.34854447300196

JSON: /api/v1/satellites/47563 · /tle

For live sub-satellite position, see the globe view (requires WebGL).

§ Visibility from observer

Set your observer location to see the next 7 days of passes ≥ 10°. The values pass through the URL so the page stays shareable.

No JS? Fill the form by hand. The geolocation button needs JavaScript.